EHI
12 15 17 16 16 17 17 15 11 7 4 4 5 6 5 5 4 5 6 5 3 1 0 0 0 0 0 0 0 0 0 0 0 0 0 0 0 0
15 16 17 17 17 19 19 19 16 12 8 6 6 7 7 5 4 5 6 6 4 1 0 0 0 0 0 0 0 0 0 0 0 0 0 0 0 0
17 18 19 19 20 21 21 22 21 18 14 10 8 9 10 7 5 5 6 7 5 1 0 0 0 0 0 0 0 0 0 0 0 0 0 0 0 0
16 17 19 21 22 21 21 22 22 20 17 13 11 12 12 10 7 7 7 7 5 2 0 0 0 0 0 0 0 0 0 0 0 0 0 0 0 0
16 16 18 20 21 20 20 21 21 19 19 16 13 14 13 11 10 9 7 6 5 3 1 0 0 0 0 0 0 0 0 0 0 0 0 0 0 0
17 16 16 16 16 15 16 19 20 19 19 18 15 13 12 11 10 8 6 6 5 4 2 1 0 0 0 0 0 0 0 0 0 0 0 0 0 0
16 15 13 11 9 8 9 14 16 17 19 19 15 11 10 10 9 6 4 6 6 4 2 1 0 1 1 1 0 0 0 0 0 0 0 0 0 0
16 13 8 6 5 4 4 5 7 9 14 17 15 11 10 11 11 8 6 8 8 5 3 2 1 1 2 2 0 0 0 0 0 0 0 0 0 0
18 14 8 4 4 4 2 1 1 3 7 12 13 12 11 12 13 12 10 9 9 7 5 3 2 1 1 1 0 0 0 0 0 0 0 0 0 0
15 12 8 5 3 3 3 2 3 3 4 7 9 9 8 8 11 12 11 9 7 6 5 4 3 2 2 1 1 0 0 0 0 0 0 0 0 0
9 8 7 5 3 3 4 4 4 4 4 5 6 5 3 3 6 9 9 8 6 4 4 4 5 4 3 2 1 0 0 0 0 0 0 0 0 0
8 7 5 4 3 3 5 6 5 5 5 5 5 4 3 1 2 4 7 7 6 4 4 4 5 4 3 1 0 0 0 0 0 0 0 0 0 0
9 9 7 4 2 1 4 5 5 5 7 8 7 6 4 3 3 3 5 6 5 4 4 4 5 3 2 1 0 0 0 0 0 0 0 0 0 0
10 9 8 5 1 0 1 3 3 5 8 9 8 6 4 3 3 4 5 4 3 3 2 3 3 2 1 1 1 1 0 0 0 0 0 0 0 0
7 7 6 3 1 1 1 1 2 5 8 10 9 7 5 4 4 4 4 2 1 1 1 1 1 0 0 0 1 1 0 0 0 0 0 0 0 0
4 4 4 3 3 4 4 3 4 7 9 10 10 8 7 6 4 3 2 1 0 0 0 0 0 0 0 0 0 0 0 0 0 0 0 0 0 0
2 3 4 4 6 7 8 7 7 8 10 11 10 8 8 7 4 3 2 1 1 0 0 0 0 0 0 0 0 0 0 0 0 0 0 0 0 0
2 3 4 5 7 8 9 9 9 9 10 10 9 7 7 6 4 3 3 2 1 0 0 1 1 0 0 0 0 0 0 0 0 0 0 0 0 0
1 2 4 5 6 7 9 9 10 10 10 9 7 5 5 4 3 3 3 3 1 0 0 1 2 1 1 0 0 0 0 0 0 0 0 0 0 0
2 3 4 6 6 7 7 9 9 10 11 9 6 4 4 3 3 3 3 2 1 0 0 1 2 2 2 1 0 0 0 0 0 0 0 0 0 0
3 3 4 6 6 6 7 7 8 8 9 7 5 4 4 3 3 3 3 1 0 0 0 1 2 2 3 2 1 1 1 1 1 1 0 0 0 0
3 3 4 6 6 6 6 5 4 5 6 6 5 4 3 3 3 3 3 1 0 0 0 2 3 3 3 3 3 2 2 2 1 1 0 0 0 0
3 3 4 6 6 6 6 4 2 2 4 6 5 4 3 3 3 3 3 2 1 0 0 1 3 3 3 3 3 3 3 3 2 1 0 0 0 0
Wind_Speed
6 6 5 4 4 4 4 4 5 4 3 3 3 2 2 2 1 3 2 3 3 3 3 3 3 3 3 3 3 3 3 4 5 5 6 6 6 7
5 5 5 5 4 4 4 4 5 5 5 2 3 2 2 2 2 3 3 3 5 4 4 4 3 3 3 3 2 2 2 2 2 2 3 3 4 5
6 6 6 6 5 4 4 5 5 5 5 4 3 2 3 4 2 4 4 4 3 6 5 4 4 3 3 3 3 2 2 2 2 3 3 3 3 4
7 6 7 5 6 6 5 6 4 4 5 5 4 4 4 4 4 5 5 4 3 5 7 6 5 4 3 3 3 3 2 2 2 2 2 3 3 4
7 7 6 6 6 5 6 5 4 5 5 5 5 3 4 3 4 5 5 4 5 4 7 7 6 5 4 4 4 3 3 3 2 2 2 2 3 3
7 7 7 7 7 6 6 6 5 5 5 5 4 4 3 3 4 5 4 4 4 3 2 3 5 7 6 5 4 3 3 3 3 3 3 3 3 2
7 6 6 5 5 5 5 5 5 5 5 5 5 4 4 4 4 4 4 4 3 3 2 3 3 4 4 5 4 3 3 3 3 3 3 3 3 3
6 6 6 6 5 5 5 5 5 6 6 5 5 5 5 5 4 5 4 4 3 2 3 3 2 2 2 1 4 5 3 3 2 2 3 3 3 2
5 5 5 3 4 4 4 6 5 5 5 6 6 6 5 4 4 5 4 4 4 2 3 4 3 2 2 2 6 5 4 3 2 2 2 2 3 3
4 4 4 3 3 2 4 4 4 3 4 5 4 5 4 3 4 5 4 4 4 3 3 4 2 2 2 2 7 6 5 4 3 2 3 3 3 3
4 4 4 4 2 2 4 4 3 2 1 1 1 1 1 1 2 3 3 4 4 2 2 3 2 2 2 3 5 7 6 5 4 3 3 3 3 4
3 4 3 2 2 3 5 4 4 3 2 2 2 3 2 3 4 4 3 3 3 2 1 2 3 3 3 2 2 3 4 5 6 5 5 4 4 4
3 3 2 4 4 3 4 3 2 2 2 3 2 2 2 2 2 2 2 3 3 3 1 2 3 3 3 2 2 2 2 2 3 4 6 6 5 4
3 2 2 5 4 3 2 1 1 3 3 2 2 1 1 1 1 1 1 2 2 3 2 3 3 3 3 3 2 1 2 2 2 3 2 5 6 6
2 1 3 5 5 3 4 4 4 3 3 3 2 2 2 1 1 1 2 2 2 2 1 2 3 3 4 4 3 2 2 3 3 2 2 2 3 3
2 3 5 5 4 3 3 4 3 2 2 2 2 2 2 2 3 2 2 2 2 1 1 1 2 4 4 4 4 3 3 3 2 3 2 3 3 4
1 2 3 3 3 3 2 2 2 2 2 2 2 2 2 2 2 2 2 2 2 1 1 1 2 2 3 4 4 4 3 3 3 2 3 4 3 3
3 3 3 3 3 3 3 2 2 2 2 2 2 3 2 2 2 2 2 2 2 2 1 1 2 2 3 2 3 4 4 3 3 2 4 4 4 2
3 3 3 3 3 3 3 2 2 2 2 3 2 2 2 2 2 2 2 2 2 2 2 2 2 3 4 4 2 3 4 3 3 3 3 4 4 3
3 3 2 2 3 3 3 2 2 2 2 2 2 2 2 3 3 3 3 3 3 3 2 2 2 3 4 5 4 2 3 3 3 3 3 3 3 2
2 2 2 2 3 3 2 2 3 3 3 3 3 3 3 3 3 3 3 3 4 3 3 3 1 3 4 3 3 2 1 2 2 3 4 4 4 4
2 2 2 3 2 2 2 3 3 3 4 3 3 3 3 3 4 4 4 3 3 3 4 2 1 2 3 3 4 3 2 1 2 2 2 3 4 4
2 2 2 3 3 3 3 3 4 3 3 3 3 3 4 4 4 4 4 4 3 4 3 2 2 2 3 4 4 3 3 3 2 3 2 3 4 4
Wind_Direction
238 229 237 238 240 244 243 249 260 267 256 211 226 202 235 242 187 239 247 170 188 209 219 224 230 241 250 248 249 249 248 255 259 258 256 254 254 253
248 251 249 246 240 240 238 239 246 258 268 251 237 227 258 268 206 248 253 193 196 205 212 213 219 231 236 230 237 234 228 238 251 262 260 253 244 246
244 241 242 252 247 242 236 236 240 244 252 259 255 230 238 261 259 263 256 248 211 187 198 208 217 222 221 222 229 228 227 234 246 259 262 253 249 250
244 246 247 243 240 249 244 241 240 244 251 259 257 246 238 243 249 258 260 254 258 170 183 201 209 210 217 226 231 229 229 236 242 256 268 264 261 260
243 242 243 244 244 243 244 243 241 239 245 254 255 254 254 250 256 255 257 257 259 197 186 192 196 205 218 222 223 225 224 229 233 238 251 264 270 273
241 242 241 239 238 239 239 240 242 247 243 248 252 249 249 248 251 254 248 236 256 256 218 202 187 197 206 206 201 204 214 224 227 230 239 252 261 266
239 242 246 249 259 257 258 247 244 246 244 244 247 250 244 240 248 257 262 261 244 246 242 231 203 208 194 188 183 180 200 210 221 233 241 245 249 250
238 238 240 236 239 234 249 256 256 250 253 255 251 251 249 247 252 256 258 259 256 228 253 255 241 233 225 202 144 159 183 198 217 232 239 241 240 237
236 239 247 240 238 247 229 226 234 241 251 261 261 263 260 254 250 250 253 268 275 272 254 250 236 236 228 147 138 160 180 201 226 239 244 242 234 231
233 233 238 243 243 245 247 238 238 238 240 245 259 267 270 262 247 250 254 251 247 240 246 259 246 248 240 180 155 169 184 196 211 222 228 228 226 231
228 227 225 226 204 233 230 231 236 235 208 185 288 304 338 272 266 257 243 241 243 233 224 261 259 253 241 219 164 171 186 193 198 207 218 228 235 234
216 216 201 206 196 222 223 221 231 238 236 206 186 195 213 199 203 235 252 257 260 249 190 260 257 254 238 208 208 191 195 189 197 205 208 210 224 247
219 213 181 156 182 220 236 232 236 246 228 227 214 198 197 216 213 219 256 264 270 267 245 255 263 261 268 250 222 216 225 222 210 204 203 201 213 245
225 220 166 158 177 204 216 194 219 232 224 222 215 221 230 241 245 258 263 286 292 287 292 284 277 279 272 261 259 238 247 250 244 240 228 189 207 223
233 149 168 174 177 186 193 202 215 224 223 225 222 229 243 236 226 212 204 215 246 251 264 286 280 282 274 269 267 261 267 267 252 253 250 240 233 223
179 155 175 190 195 200 197 203 218 242 253 244 232 224 226 221 218 214 210 222 226 198 178 258 271 275 270 272 267 267 269 269 270 271 273 262 245 242
175 209 215 205 203 207 213 215 215 216 226 240 240 229 223 217 218 218 233 245 257 267 238 220 229 247 269 278 262 258 265 271 279 291 268 266 259 250
200 210 219 218 215 217 218 216 213 221 234 237 235 234 229 224 223 223 236 253 262 269 272 268 254 243 247 234 271 275 273 279 281 263 264 268 266 254
211 216 221 224 225 227 227 227 227 226 236 236 230 232 233 233 236 236 240 243 253 265 270 270 269 270 270 272 245 268 285 290 288 280 272 275 277 275
214 220 222 223 229 230 229 231 232 228 225 229 231 234 234 235 237 239 242 251 252 259 264 266 277 282 281 288 293 277 241 277 282 277 280 282 280 278
226 225 228 226 229 228 229 233 233 230 232 233 227 235 239 240 244 245 246 240 254 259 264 266 284 267 271 271 268 272 243 206 282 284 279 271 266 256
236 234 237 241 239 240 240 242 238 227 221 225 229 234 234 238 241 244 254 251 245 258 270 278 251 246 256 269 280 287 289 216 193 207 270 297 296 287
255 252 246 241 233 229 233 238 243 242 236 236 236 236 236 236 241 242 245 253 258 260 265 272 274 265 269 271 278 283 287 280 259 243 235 210 219 228